COSMOS 1275 DEB, 42144

Orbit data source: Space-Track

COSMOS 1275 DEB, 42144 is space debris in LEO originally from a launch on Thu, 04 Jun 1981 UTC launched from the Plesetsk Missile And Space Complex (PKMTR). Debris objects in space refer to the collection of defunct objects orbiting the Earth. Examples of debris include non-operational satellites, rocket bodies, and fragments generated from explosions, collisions, or faulty payload assembly.

Loading next visibility...
Identifier
42144, 1981-053RG
Orbit
LEO
Country
Flag of CISCIS
Related business
Manufacturer
Unknown
Mission
Spacecraft
Bus & Motor
Unknown
Mass
Unknown
Launch date (UTC)
1981-06-04 (45 years ago)
Launch vehicle
Unknown
Launch site
Plesetsk Missile And Space Complex (PKMTR)
Object type
Payload
Rocket body
Debris
Shape & HBR
Unknown shape, 0.1 m
Radar Cross Section
Medium (>0.1 m² and <1 m²)

Expand to show TLE details & history
Last TLE update: 19 hours ago

TLE from 19 hours ago
0 COSMOS 1275 DEB
1 42144U 81053RG  26254.71958787  .00000651  00000-0  51644-3 0  9998
2 42144  82.8046 237.4522 0057957 187.4173 348.4674 13.89162459647601
Epoch: 2026-09-11T17:16Z
TLE epoch observation values (Epoch: 2026-09-11T17:16:12.391Z)
Latitude
4.12506°
Longitude
167.14272°
Altitude
892.535 km
Speed
7.427 km/s
True Right ascension
03h 47m 43s
True Declination
4° 06' 03"
Sunlit
Object was in daylight at epoch
Visualization orbit readout
Latitude
Unknown
Longitude
Unknown
Altitude
Unknown
Speed
Unknown
Apparent Right ascension
Unknown
Apparent Declination
Unknown
Sunlit
N/A
Visualization observer readout
Local Sidereal Time
04:45:01
Azimuth
Unknown
Elevation
Unknown
Doppler factor
Unknown
Orbital elements
Apogee altitude
971.05 km
Perigee altitude
886.354 km
Semi-major axis
7,306.839 km
Eccentricity
0.0058
Inclination
82.8046°
RAAN
237.4522°
Arg. of periapsis
187.4173°
True anomaly
348.33367°
Mean anomaly
348.4674°
Eccentric anomaly
348.40063°
Mean motion
3.47495 °/min
Orbital period
103.6 mins
BSTAR
0.00051644
Loading maneuver chart data...
Computing Atmospheric mass density...
Loading historical data...
Loading historical data...
Loading historical data...
Loading historical data...
Loading historical data...
Loading historical data...
Loading historical data...

Documentation

Showing up to 5 results
|